Location: Newark
(45.2500°N, 7.5833°E)
Time: 03:20:30
(UTC+00:00)

Tiros 1 despin weight - Pass Details

Date: 29 January 2020
Orbit: 594 x 642 km, 48.2° (Epoch: 16 February)

Event Time Altitude Azimuth Distance (km) Brightness Sun altitude
Rises 14:06:55 0° 290° (WNW) 2,893 ? 18.8°
Reaches altitude 10° 14:09:14 10° 288° (WNW) 1,994 ? 18.6°
Maximum altitude 14:13:48 72° 205° (SSW) 663 ? 18.1°
Drops below altitude 10° 14:18:25 10° 121° (ESE) 2,014 ? 17.6°
Sets 14:20:46 0° 120° (ESE) 2,925 ? 17.3°
